| time (UTC) | temp C | wind direction | speed KPH | gust KPH | rain 1hr cm | rain 24hr cm | rain mn cm | humidity % | barometer mb |
| 20260504000039 | 23 | 192 | 0.0 | 3.2 | 0.00 | 0.00 | 0.00 | 50 | 1017.3 |
| 20260503235526 | 23 | 0 | 0.0 | 4.8 | 0.00 | 0.00 | 0.00 | 50 | 1017.3 |
| 20260503235026 | 23 | 135 | 0.0 | 4.8 | 0.00 | 0.00 | 0.00 | 50 | 1017.3 |
| 20260503234545 | 23 | 132 | 0.0 | 4.8 | 0.00 | 0.00 | 0.00 | 49 | 1017.3 |
| 20260503234025 | 23 | 0 | 0.0 | 4.8 | 0.00 | 0.00 | 0.00 | 50 | 1017.4 |
| 20260503233528 | 23 | 210 | 1.6 | 4.8 | 0.00 | 0.00 | 0.00 | 49 | 1017.4 |
| 20260503233043 | 23 | 202 | 1.6 | 6.4 | 0.00 | 0.00 | 0.00 | 52 | 1017.3 |
| 20260503232530 | 23 | 190 | 3.2 | 6.4 | 0.00 | 0.00 | 0.00 | 52 | 1017.3 |
| 20260503232030 | 23 | 172 | 0.0 | 6.4 | 0.00 | 0.00 | 0.00 | 49 | 1017.4 |
| 20260503231543 | 23 | 201 | 3.2 | 6.4 | 0.00 | 0.00 | 0.00 | 50 | 1017.4 |
| 20260503231027 | 23 | 163 | 3.2 | 6.4 | 0.00 | 0.00 | 0.00 | 52 | 1017.4 |
| 20260503230529 | 23 | 125 | 1.6 | 6.4 | 0.00 | 0.00 | 0.00 | 49 | 1017.4 |
| 20260503230041 | 23 | 204 | 1.6 | 8.0 | 0.00 | 0.00 | 0.00 | 51 | 1017.3 |
| 20260503225527 | 23 | 146 | 1.6 | 9.7 | 0.00 | 0.00 | 0.00 | 48 | 1017.4 |
| 20260503225027 | 23 | 188 | 3.2 | 11.3 | 0.00 | 0.00 | 0.00 | 48 | 1017.4 |
| 20260503224541 | 23 | 163 | 3.2 | 11.3 | 0.00 | 0.00 | 0.00 | 51 | 1017.3 |
| 20260503224030 | 23 | 152 | 1.6 | 9.7 | 0.00 | 0.00 | 0.00 | 47 | 1017.3 |
| 20260503223527 | 23 | 155 | 1.6 | 8.0 | 0.00 | 0.00 | 0.00 | 46 | 1017.4 |
| 20260503223045 | 23 | 209 | 1.6 | 8.0 | 0.00 | 0.00 | 0.00 | 49 | 1017.4 |
| 20260503222527 | 23 | 203 | 1.6 | 9.7 | 0.00 | 0.00 | 0.00 | 49 | 1017.3 |
| 20260503222027 | 23 | 211 | 3.2 | 9.7 | 0.00 | 0.00 | 0.00 | 50 | 1017.3 |
| 20260503221547 | 23 | 96 | 3.2 | 11.3 | 0.00 | 0.00 | 0.00 | 52 | 1017.3 |
| 20260503221029 | 23 | 111 | 3.2 | 11.3 | 0.00 | 0.00 | 0.00 | 48 | 1017.4 |
| 20260503220530 | 23 | 111 | 4.8 | 11.3 | 0.00 | 0.00 | 0.00 | 49 | 1017.4 |
| 20260503220046 | 23 | 227 | 3.2 | 8.0 | 0.00 | 0.00 | 0.00 | 50 | 1017.4 |
| 20260503215529 | 23 | 130 | 3.2 | 8.0 | 0.00 | 0.00 | 0.00 | 50 | 1017.5 |
| 20260503215028 | 24 | 144 | 3.2 | 8.0 | 0.00 | 0.00 | 0.00 | 50 | 1017.5 |
| 20260503214540 | 24 | 117 | 3.2 | 9.7 | 0.00 | 0.00 | 0.00 | 47 | 1017.5 |
| 20260503214027 | 23 | 217 | 4.8 | 9.7 | 0.00 | 0.00 | 0.00 | 48 | 1017.6 |
| 20260503213530 | 23 | 176 | 3.2 | 17.7 | 0.00 | 0.00 | 0.00 | 47 | 1017.5 |
| 20260503213044 | 23 | 251 | 4.8 | 17.7 | 0.00 | 0.00 | 0.00 | 49 | 1017.6 |
| 20260503212525 | 23 | 255 | 4.8 | 11.3 | 0.00 | 0.00 | 0.00 | 50 | 1017.7 |
| 20260503212026 | 23 | 194 | 3.2 | 9.7 | 0.00 | 0.00 | 0.00 | 49 | 1017.7 |
| 20260503211552 | 23 | 101 | 1.6 | 9.7 | 0.00 | 0.00 | 0.00 | 49 | 1017.8 |
| 20260503211027 | 23 | 99 | 3.2 | 14.5 | 0.00 | 0.00 | 0.00 | 48 | 1017.8 |
| 20260503210532 | 24 | 170 | 4.8 | 14.5 | 0.00 | 0.00 | 0.00 | 48 | 1018.0 |
| 20260503210046 | 24 | 107 | 3.2 | 9.7 | 0.00 | 0.00 | 0.00 | 48 | 1018.0 |
| 20260503205528 | 24 | 232 | 3.2 | 9.7 | 0.00 | 0.00 | 0.00 | 47 | 1018.1 |
| 20260503205029 | 23 | 157 | 3.2 | 9.7 | 0.00 | 0.00 | 0.00 | 48 | 1018.1 |
| 20260503204552 | 23 | 167 | 3.2 | 9.7 | 0.00 | 0.00 | 0.00 | 46 | 1018.2 |
| 20260503204031 | 23 | 161 | 3.2 | 12.9 | 0.00 | 0.00 | 0.00 | 45 | 1018.3 |
| 20260503203525 | 23 | 198 | 4.8 | 12.9 | 0.00 | 0.00 | 0.00 | 44 | 1018.4 |
| 20260503203045 | 23 | 221 | 6.4 | 12.9 | 0.00 | 0.00 | 0.00 | 45 | 1018.4 |
| 20260503202525 | 23 | 175 | 4.8 | 12.9 | 0.00 | 0.00 | 0.00 | 44 | 1018.5 |
| 20260503202026 | 23 | 175 | 4.8 | 16.1 | 0.00 | 0.00 | 0.00 | 44 | 1018.5 |
| 20260503201540 | 23 | 170 | 8.0 | 16.1 | 0.00 | 0.00 | 0.00 | 44 | 1018.6 |
| 20260503201025 | 23 | 159 | 4.8 | 12.9 | 0.00 | 0.00 | 0.00 | 44 | 1018.6 |
| 20260503200526 | 23 | 172 | 4.8 | 12.9 | 0.00 | 0.00 | 0.00 | 43 | 1018.6 |
| 20260503200041 | 23 | 143 | 4.8 | 19.3 | 0.00 | 0.00 | 0.00 | 41 | 1018.8 |
| 20260503195527 | 23 | 167 | 6.4 | 19.3 | 0.00 | 0.00 | 0.00 | 41 | 1018.8 |
| 20260503195025 | 23 | 214 | 4.8 | 19.3 | 0.00 | 0.00 | 0.00 | 44 | 1019.0 |
| 20260503194547 | 24 | 234 | 4.8 | 19.3 | 0.00 | 0.00 | 0.00 | 42 | 1019.1 |
| 20260503194026 | 24 | 175 | 4.8 | 9.7 | 0.00 | 0.00 | 0.00 | 40 | 1019.2 |
| 20260503193527 | 24 | 233 | 3.2 | 8.0 | 0.00 | 0.00 | 0.00 | 36 | 1019.3 |
| 20260503193052 | 23 | 271 | 3.2 | 12.9 | 0.00 | 0.00 | 0.00 | 39 | 1019.4 |
| 20260503192523 | 23 | 316 | 4.8 | 12.9 | 0.00 | 0.00 | 0.00 | 35 | 1019.5 |
| 20260503192025 | 24 | 75 | 4.8 | 9.7 | 0.00 | 0.00 | 0.00 | 35 | 1019.6 |
| 20260503191544 | 24 | 11 | 3.2 | 9.7 | 0.00 | 0.00 | 0.00 | 38 | 1019.7 |
| 20260503191026 | 23 | 69 | 3.2 | 11.3 | 0.00 | 0.00 | 0.00 | 36 | 1019.7 |
| 20260503190525 | 23 | 61 | 3.2 | 11.3 | 0.00 | 0.00 | 0.00 | 35 | 1019.8 |
| 20260503190049 | 23 | 49 | 3.2 | 11.3 | 0.00 | 0.00 | 0.00 | 36 | 1020.0 |
| 20260503185525 | 23 | 360 | 4.8 | 12.9 | 0.00 | 0.00 | 0.00 | 36 | 1020.0 |
| 20260503185025 | 23 | 294 | 4.8 | 14.5 | 0.00 | 0.00 | 0.00 | 36 | 1020.1 |
| 20260503184540 | 23 | 221 | 6.4 | 14.5 | 0.00 | 0.00 | 0.00 | 39 | 1020.0 |
| 20260503184023 | 23 | 300 | 3.2 | 16.1 | 0.00 | 0.00 | 0.00 | 37 | 1020.1 |
| 20260503183524 | 23 | 294 | 6.4 | 16.1 | 0.00 | 0.00 | 0.00 | 35 | 1020.3 |
| 20260503183056 | 23 | 82 | 6.4 | 16.1 | 0.00 | 0.00 | 0.00 | 37 | 1020.3 |
| 20260503182525 | 23 | 340 | 6.4 | 17.7 | 0.00 | 0.00 | 0.00 | 36 | 1020.3 |
| 20260503182025 | 23 | 33 | 6.4 | 17.7 | 0.00 | 0.00 | 0.00 | 36 | 1020.5 |
| 20260503181540 | 23 | 299 | 4.8 | 12.9 | 0.00 | 0.00 | 0.00 | 35 | 1020.4 |
| 20260503181025 | 23 | 40 | 4.8 | 12.9 | 0.00 | 0.00 | 0.00 | 39 | 1020.5 |
| 20260503180528 | 23 | 0 | 4.8 | 12.9 | 0.00 | 0.00 | 0.00 | 38 | 1020.5 |
| 20260503180051 | 23 | 33 | 4.8 | 20.9 | 0.00 | 0.00 | 0.00 | 38 | 1020.5 |
| 20260503175525 | 23 | 326 | 8.0 | 20.9 | 0.00 | 0.00 | 0.00 | 37 | 1020.5 |
| 20260503175026 | 22 | 279 | 9.7 | 20.9 | 0.00 | 0.00 | 0.00 | 36 | 1020.5 |
| 20260503174540 | 23 | 319 | 6.4 | 16.1 | 0.00 | 0.00 | 0.00 | 36 | 1020.6 |
| 20260503174025 | 22 | 10 | 4.8 | 12.9 | 0.00 | 0.00 | 0.00 | 36 | 1020.6 |
| 20260503173526 | 22 | 80 | 4.8 | 14.5 | 0.00 | 0.00 | 0.00 | 35 | 1020.7 |
| 20260503173113 | 22 | 290 | 4.8 | 14.5 | 0.00 | 0.00 | 0.00 | 39 | 1020.7 |
| 20260503172525 | 22 | 45 | 4.8 | 16.1 | 0.00 | 0.00 | 0.00 | 38 | 1020.7 |
| 20260503172026 | 22 | 17 | 4.8 | 16.1 | 0.00 | 0.00 | 0.00 | 39 | 1020.7 |
| 20260503171549 | 22 | 298 | 4.8 | 16.1 | 0.00 | 0.00 | 0.00 | 38 | 1020.8 |
| 20260503171026 | 22 | 23 | 4.8 | 17.7 | 0.00 | 0.00 | 0.00 | 38 | 1020.9 |
| 20260503170526 | 22 | 296 | 4.8 | 19.3 | 0.00 | 0.00 | 0.00 | 39 | 1021.0 |
| 20260503150525 | 21 | 52 | 3.2 | 12.9 | 0.00 | 0.00 | 0.00 | 52 | 1021.7 |
| 20260503131029 | 16 | 352 | 3.2 | 6.4 | 0.00 | 0.00 | 0.00 | 68 | 1021.0 |
| 20260503130528 | 15 | 10 | 1.6 | 6.4 | 0.00 | 0.00 | 0.00 | 68 | 1021.1 |
| 20260503110525 | 11 | 0 | 0.0 | 1.6 | 0.00 | 0.13 | 0.00 | 86 | 1020.0 |
| 20260503081545 | 12 | 0 | 0.0 | 3.2 | 0.00 | 1.47 | 0.00 | 79 | 1019.3 |
| 20260503081026 | 12 | 0 | 0.0 | 3.2 | 0.00 | 1.47 | 0.00 | 78 | 1019.2 |
| 20260503080526 | 12 | 9 | 0.0 | 1.6 | 0.00 | 1.47 | 0.00 | 78 | 1019.1 |
| 20260503072526 | 13 | 0 | 1.6 | 4.8 | 0.00 | 2.21 | 0.00 | 74 | 1018.7 |
| 20260503072025 | 13 | 0 | 0.0 | 4.8 | 0.00 | 2.21 | 0.00 | 75 | 1018.5 |
| 20260503071547 | 13 | 9 | 0.0 | 4.8 | 0.00 | 2.21 | 0.00 | 75 | 1018.7 |
| 20260503071025 | 13 | 0 | 1.6 | 4.8 | 0.00 | 2.21 | 0.00 | 75 | 1018.8 |
| 20260503070523 | 13 | 9 | 1.6 | 4.8 | 0.00 | 2.21 | 0.00 | 75 | 1018.8 |
| 20260503055026 | 15 | 320 | 0.0 | 11.3 | 0.00 | 3.23 | 0.00 | 74 | 1018.6 |
| 20260503054543 | 14 | 277 | 1.6 | 8.0 | 0.00 | 3.23 | 0.00 | 75 | 1018.5 |
| 20260503054026 | 14 | 106 | 0.0 | 4.8 | 0.00 | 3.23 | 0.00 | 77 | 1018.5 |
| 20260503053526 | 13 | 0 | 0.0 | 6.4 | 0.00 | 3.23 | 0.00 | 79 | 1018.5 |
| 20260503053037 | 13 | 326 | 1.6 | 6.4 | 0.00 | 3.23 | 0.00 | 80 | 1018.5 |
| 20260503052529 | 13 | 329 | 0.0 | 3.2 | 0.00 | 3.23 | 0.00 | 80 | 1018.5 |
| 20260503052025 | 13 | 0 | 0.0 | 4.8 | 0.00 | 3.23 | 0.00 | 80 | 1018.5 |
| 20260503051538 | 13 | 329 | 0.0 | 4.8 | 0.00 | 3.23 | 0.00 | 79 | 1018.4 |
| 20260503051026 | 13 | 0 | 0.0 | 3.2 | 0.00 | 3.23 | 0.00 | 78 | 1018.4 |
| 20260503050528 | 13 | 0 | 0.0 | 3.2 | 0.00 | 3.23 | 0.00 | 77 | 1018.5 |
| 20260503050042 | 13 | 0 | 0.0 | 4.8 | 0.00 | 3.23 | 0.00 | 77 | 1018.5 |
| 20260503045532 | 13 | 282 | 0.0 | 8.0 | 0.00 | 3.23 | 3.23 | 77 | 1018.3 |
| 20260503045028 | 13 | 312 | 0.0 | 8.0 | 0.00 | 3.23 | 3.23 | 77 | 1018.3 |
| 20260503044539 | 13 | 315 | 3.2 | 8.0 | 0.00 | 3.23 | 3.23 | 77 | 1018.3 |
| 20260503044027 | 13 | 281 | 1.6 | 3.2 | 0.00 | 3.23 | 3.23 | 77 | 1018.2 |
| 20260503043528 | 14 | 0 | 0.0 | 3.2 | 0.00 | 3.23 | 3.23 | 76 | 1018.2 |
| 20260503043039 | 14 | 281 | 0.0 | 3.2 | 0.00 | 3.23 | 3.23 | 76 | 1018.3 |
| 20260503042527 | 15 | 281 | 0.0 | 4.8 | 0.00 | 3.23 | 3.23 | 75 | 1018.2 |
| 20260503042030 | 15 | 281 | 1.6 | 4.8 | 0.00 | 3.23 | 3.23 | 74 | 1018.1 |
| 20260503041546 | 15 | 281 | 1.6 | 3.2 | 0.00 | 3.23 | 3.23 | 73 | 1018.1 |
| 20260503041030 | 15 | 281 | 1.6 | 3.2 | 0.00 | 3.23 | 3.23 | 73 | 1018.0 |
| 20260503040531 | 15 | 319 | 1.6 | 3.2 | 0.00 | 3.23 | 3.23 | 72 | 1018.0 |
| 20260503040043 | 15 | 319 | 0.0 | 3.2 | 0.00 | 3.23 | 3.23 | 71 | 1017.9 |
| 20260503035528 | 16 | 319 | 1.6 | 3.2 | 0.00 | 3.53 | 3.23 | 71 | 1018.0 |
| 20260503035028 | 16 | 319 | 1.6 | 6.4 | 0.00 | 3.53 | 3.23 | 70 | 1017.9 |
| 20260503034541 | 16 | 319 | 1.6 | 6.4 | 0.00 | 3.53 | 3.23 | 69 | 1017.9 |
| 20260503034030 | 16 | 319 | 3.2 | 8.0 | 0.00 | 3.53 | 3.23 | 68 | 1017.9 |
| 20260503033527 | 16 | 270 | 1.6 | 8.0 | 0.00 | 3.53 | 3.23 | 68 | 1017.9 |
| 20260503033045 | 16 | 0 | 1.6 | 8.0 | 0.00 | 3.53 | 3.23 | 67 | 1017.8 |
| 20260503032527 | 16 | 317 | 1.6 | 6.4 | 0.00 | 3.53 | 3.23 | 67 | 1017.8 |
| 20260503032027 | 16 | 317 | 1.6 | 6.4 | 0.00 | 3.53 | 3.23 | 68 | 1017.8 |
| 20260503031540 | 16 | 0 | 0.0 | 8.0 | 0.00 | 3.53 | 3.23 | 69 | 1017.8 |
| 20260503031027 | 16 | 294 | 0.0 | 8.0 | 0.00 | 3.53 | 3.23 | 68 | 1017.7 |
| 20260503030529 | 16 | 302 | 3.2 | 8.0 | 0.00 | 3.53 | 3.23 | 67 | 1017.6 |
| 20260503030047 | 16 | 350 | 1.6 | 4.8 | 0.00 | 3.53 | 3.23 | 67 | 1017.5 |
| 20260503025528 | 16 | 19 | 1.6 | 4.8 | 0.00 | 3.91 | 3.23 | 66 | 1017.5 |
| 20260503025028 | 17 | 325 | 1.6 | 6.4 | 0.00 | 3.91 | 3.23 | 63 | 1017.4 |
| 20260503024545 | 17 | 355 | 0.0 | 6.4 | 0.00 | 3.91 | 3.23 | 62 | 1017.5 |
| 20260503024028 | 17 | 346 | 1.6 | 6.4 | 0.00 | 3.91 | 3.23 | 62 | 1017.4 |
| 20260503023527 | 17 | 0 | 1.6 | 6.4 | 0.00 | 3.91 | 3.23 | 63 | 1017.4 |
| 20260503023041 | 17 | 9 | 1.6 | 6.4 | 0.00 | 3.91 | 3.23 | 63 | 1017.3 |
| 20260503022527 | 17 | 0 | 0.0 | 4.8 | 0.00 | 3.91 | 3.23 | 62 | 1017.2 |
| 20260503022026 | 17 | 329 | 0.0 | 4.8 | 0.00 | 3.91 | 3.23 | 61 | 1017.2 |
| 20260503021548 | 17 | 0 | 1.6 | 4.8 | 0.00 | 3.91 | 3.23 | 61 | 1017.2 |
| 20260503021027 | 17 | 355 | 0.0 | 4.8 | 0.00 | 3.91 | 3.23 | 61 | 1017.2 |
| 20260503020527 | 17 | 0 | 1.6 | 4.8 | 0.00 | 3.91 | 3.23 | 60 | 1017.1 |
| 20260503020049 | 17 | 13 | 1.6 | 4.8 | 0.00 | 3.91 | 3.23 | 59 | 1017.0 |
| 20260503015528 | 17 | 17 | 1.6 | 6.4 | 0.00 | 5.03 | 3.23 | 59 | 1016.9 |
| 20260503015027 | 17 | 27 | 1.6 | 6.4 | 0.00 | 5.03 | 3.23 | 57 | 1016.8 |
| 20260503014606 | 18 | 0 | 1.6 | 6.4 | 0.00 | 5.03 | 3.23 | 58 | 1016.7 |
| 20260503014026 | 18 | 344 | 3.2 | 9.7 | 0.00 | 5.03 | 3.23 | 56 | 1016.6 |
| 20260503013525 | 18 | 19 | 3.2 | 9.7 | 0.00 | 5.03 | 3.23 | 56 | 1016.6 |
| 20260503013041 | 18 | 5 | 3.2 | 9.7 | 0.00 | 5.03 | 3.23 | 55 | 1016.5 |
| 20260503012526 | 18 | 310 | 3.2 | 12.9 | 0.00 | 5.03 | 3.23 | 55 | 1016.5 |
| 20260503012026 | 18 | 39 | 3.2 | 12.9 | 0.00 | 5.03 | 3.23 | 55 | 1016.4 |
| 20260503011548 | 18 | 350 | 3.2 | 9.7 | 0.00 | 5.03 | 3.23 | 55 | 1016.3 |
| 20260503011025 | 18 | 31 | 3.2 | 9.7 | 0.00 | 5.03 | 3.23 | 54 | 1016.1 |
| 20260503010523 | 18 | 47 | 1.6 | 14.5 | 0.00 | 5.03 | 3.23 | 55 | 1015.9 |
| 20260503010050 | 19 | 302 | 3.2 | 17.7 | 0.00 | 5.03 | 3.23 | 54 | 1015.9 |
| 20260503005526 | 19 | 298 | 4.8 | 17.7 | 0.00 | 5.08 | 3.23 | 52 | 1015.8 |
| 20260503005026 | 19 | 281 | 3.2 | 9.7 | 0.00 | 5.08 | 3.23 | 52 | 1015.6 |
| 20260503004555 | 19 | 338 | 3.2 | 9.7 | 0.00 | 5.08 | 3.23 | 52 | 1015.5 |
| 20260503004025 | 19 | 38 | 3.2 | 16.1 | 0.00 | 5.08 | 3.23 | 51 | 1015.5 |
| 20260503003528 | 20 | 355 | 6.4 | 17.7 | 0.00 | 5.08 | 3.23 | 50 | 1015.4 |
| 20260503003043 | 20 | 35 | 4.8 | 17.7 | 0.00 | 5.08 | 3.23 | 49 | 1015.3 |
| 20260503002526 | 20 | 22 | 8.0 | 17.7 | 0.00 | 5.08 | 3.23 | 49 | 1015.1 |
| 20260503002025 | 20 | 299 | 6.4 | 17.7 | 0.00 | 5.08 | 3.23 | 48 | 1015.1 |
| 20260503001541 | 20 | 360 | 4.8 | 19.3 | 0.00 | 5.08 | 3.23 | 49 | 1015.0 |
| 20260503001027 | 20 | 341 | 6.4 | 19.3 | 0.00 | 5.08 | 3.23 | 49 | 1014.9 |
| 20260503000526 | 20 | 64 | 8.0 | 17.7 | 0.00 | 5.08 | 3.23 | 51 | 1014.7 |